Weather History for KOWD - February, 2012

Change the Weather History Date:

Wednesday, February 1, 2012

  Actual Average (WUND) Record (WUND)
Temperature  
Mean Temperature 48 °F -  
Max Temperature 62 °F - - (-1)
Min Temperature 33 °F - - (-1)
Degree Days  
Heating Degree Days 18    
Moisture  
Dew Point 34 °F    
Average Humidity 70    
Maximum Humidity 93    
Minimum Humidity 41    
Precipitation  
Precipitation 0.00 in - - ()
Sea Level Pressure  
Sea Level Pressure 29.88 in    
Wind  
Wind Speed 3 mph (West)    
Max Wind Speed 15 mph    
Max Gust Speed 22 mph    
Visibility 6 miles    
Events Fog    
Averages and records for this station are not official NWS values.
T = Trace of Precipitation, MM = Missing Value Source: NWS Daily Summary

Daily Weather History Graph

Daily Weather History Graph

Search for Another Location

Airport or City:

Trip Planner

Search our weather history database for the weather conditions in past years. The results will help you decide how hot, cold, wet, or windy it might be!

Date:

Astronomy

Feb. 01, 2012 Rise Set
Actual Time 6:58 AM EST 4:58 PM EST
Civil Twilight 6:28 AM EST 5:28 PM EST
Nautical Twilight 5:55 AM EST 6:01 PM EST
Astronomical Twilight 5:22 AM EST 6:34 PM EST
Moon 11:22 AM EST 1:42 AM EST
Length of Visible Light 10h 59m
Length of Day
10h 00m
Waxing Gibbous, 64% of the Moon is Illuminated
Feb 1
Waxing Gibbous
Feb 7
Full
Feb 14
Last Quarter
Feb 21
New
Feb 29
First Quarter

Hourly Weather History & Observations

Time (EST) Temp. Windchill Dew Point Humidity Pressure Visibility Wind Dir Wind Speed Gust Speed Precip Events Conditions
12:53 AM 35.1 °F - 32.0 °F 89% 30.01 in 0.8 mi Calm Calm - N/A   Mist
1:16 AM 35.6 °F - 32.0 °F 87% 30.01 in 1.0 mi Calm Calm - N/A   Overcast
1:37 AM 35.6 °F - 33.8 °F 93% 29.99 in 0.8 mi Calm Calm - N/A   Overcast
2:53 AM 34.0 °F - 32.0 °F 92% 29.96 in 0.8 mi Calm Calm - N/A   Overcast
3:53 AM 34.0 °F - 32.0 °F 92% 29.94 in 0.2 mi Calm Calm - N/A Fog Fog
4:53 AM 34.0 °F - 32.0 °F 92% 29.93 in 0.2 mi Calm Calm - N/A Fog Fog
5:53 AM 34.0 °F - 32.0 °F 92% 29.91 in 0.2 mi Calm Calm - N/A Fog Fog
6:13 AM 33.8 °F - 32.0 °F 93% 29.90 in 1.2 mi Calm Calm - N/A   Overcast
6:43 AM 33.8 °F - 32.0 °F 93% 29.88 in 1.8 mi Calm Calm - N/A   Overcast
7:02 AM 35.6 °F - 32.0 °F 87% 29.88 in 2.0 mi Calm Calm - N/A   Overcast
7:23 AM 35.6 °F - 33.8 °F 93% 29.88 in 3.0 mi Calm Calm - N/A   Overcast
7:53 AM 36.0 °F - 33.1 °F 89% 29.89 in 3.0 mi Calm Calm - N/A   Overcast
8:53 AM 37.0 °F - 34.0 °F 89% 29.87 in 5.0 mi Calm Calm - N/A   Overcast
9:53 AM 42.1 °F - 36.0 °F 79% 29.84 in 8.0 mi Calm Calm - N/A   Overcast
10:53 AM 55.9 °F - 39.9 °F 55% 29.82 in 10.0 mi WSW 6.9 mph - N/A   Clear
11:53 AM 59.0 °F - 37.9 °F 46% 29.80 in 10.0 mi WSW 15.0 mph 18.4 mph N/A   Scattered Clouds
12:53 PM 61.0 °F - 37.0 °F 41% 29.77 in 10.0 mi WSW 15.0 mph 21.9 mph N/A   Mostly Cloudy
1:53 PM 60.1 °F - 37.9 °F 44% 29.77 in 10.0 mi WSW 10.4 mph - N/A   Mostly Cloudy
3:53 PM 62.1 °F - 37.9 °F 41% 29.78 in 10.0 mi West 9.2 mph - N/A   Scattered Clouds
4:53 PM 59.0 °F - 37.9 °F 46% 29.80 in 10.0 mi West 5.8 mph - N/A   Scattered Clouds
6:53 PM 55.0 °F - 37.9 °F 53% 29.84 in 10.0 mi West 10.4 mph - N/A   Scattered Clouds
7:53 PM 51.1 °F - 37.9 °F 61% 29.87 in 10.0 mi NW 10.4 mph - N/A   Clear
8:53 PM 50.0 °F - 36.0 °F 59% 29.89 in 10.0 mi WNW 10.4 mph - N/A   Clear
9:53 PM 48.0 °F - 30.9 °F 52% 29.92 in 10.0 mi WNW 13.8 mph 21.9 mph N/A   Clear
10:53 PM 46.0 °F 41.4 °F 28.0 °F 50% 29.95 in 10.0 mi West 9.2 mph - N/A   Clear
11:53 PM 44.1 °F 38.1 °F 28.0 °F 53% 29.97 in 10.0 mi West 11.5 mph 17.3 mph N/A   Clear